Date String (YYYY-MM-DD hh:mm:ss) UTC,Instrument flags,absolute air pressure of the measurement (hPa),sample flow rate (lpm),inlet stack bypass flow (lpm),air temperature of the measurement (°C),ambient temperature measured by the external sensor (°C),aerosol sample conditioner tube jacket temperature (°C),OPC LED temperature (°C),internal box temperature (°C),relative humidity of the measurement (%),span deviation,mass concentration of particles derived from Lorenz-Mie calculation of OPC scattering (μg/m³),mass concentration of particles derived from Lorenz-Mie calculation of OPC scattering (μg/m³),mass concentration of particles derived from Lorenz-Mie calculation of OPC scattering (μg/m³)
DateTimeUTC,F1_M11,P_M11,Q1_M11,Q2_M11,T1_M11,T2_M11,T3_M11,T4_M11,T5_M11,U1_M11,ZSPAN_M11,X0_M11,X2_M11,X1_M11
2023-09-27 10:00:00,SystemResetWarning,0832.5,5.01,000.00,028.7,027.3,000.0,037.1,030.4,16.5,0002.5,0018.23,0006.39,0005.04
2023-09-27 10:01:00,SystemResetWarning,0832.5,5.00,000.00,028.7,027.4,000.0,037.1,030.4,16.3,0002.6,0017.66,0006.39,0005.03
2023-09-27 10:02:00,SystemResetWarning,0832.5,4.99,000.00,028.7,027.4,000.0,037.1,030.4,16.2,0002.6,0017.09,0006.40,0005.02
2023-09-27 10:03:00,SystemResetWarning,0832.5,4.99,000.00,028.7,027.4,000.0,037.1,030.5,16.1,0002.3,0015.30,0006.41,0005.01
2023-09-27 10:04:00,SystemResetWarning,0832.5,5.00,000.00,028.7,027.4,000.0,037.1,030.5,16.1,0002.2,0016.45,0006.43,0005.02
2023-09-27 10:05:00,SystemResetWarning,0832.5,5.01,000.00,028.8,027.4,000.0,037.2,030.5,16.2,0002.3,0017.14,0006.43,0005.00
2023-09-27 10:06:00,SystemResetWarning,0832.5,5.01,000.00,028.8,027.4,000.0,037.2,030.5,16.4,0002.3,0017.67,0006.49,0005.00
2023-09-27 10:07:00,SystemResetWarning,0832.5,5.00,000.00,028.8,027.4,000.0,037.2,030.5,16.4,0002.0,0017.86,0006.44,0004.97
2023-09-27 10:08:00,SystemResetWarning,0832.5,4.99,000.00,028.8,027.4,000.0,037.2,030.5,16.4,0001.6,0018.29,0006.45,0004.95
2023-09-27 10:09:00,SystemResetWarning,0832.5,4.99,000.00,028.8,027.4,000.0,037.2,030.5,16.4,0001.5,0019.62,0006.46,0004.96
2023-09-27 10:10:00,SystemResetWarning,0832.6,5.00,000.00,028.8,027.4,000.0,037.2,030.5,16.3,0001.8,0020.54,0006.53,0004.97
2023-09-27 10:11:00,SystemResetWarning,0832.5,5.00,000.00,028.8,027.4,000.0,037.2,030.5,16.3,0002.0,0021.54,0006.57,0004.97
2023-09-27 10:12:00,SystemResetWarning,0832.5,5.00,000.00,028.8,027.4,000.0,037.2,030.5,16.1,0002.0,0022.04,0006.57,0004.98
2023-09-27 10:13:00,SystemResetWarning,0832.5,5.00,000.00,028.8,027.5,000.0,037.2,030.5,16.1,0002.0,0022.24,0006.54,0004.99
2023-09-27 10:14:00,SystemResetWarning,0832.5,5.00,000.00,028.8,027.5,000.0,037.2,030.5,16.1,0002.4,0022.90,0006.52,0004.98
2023-09-27 10:15:00,SystemResetWarning,0832.5,5.01,000.00,028.8,027.5,000.0,037.2,030.5,16.1,0001.9,0022.33,0006.54,0004.97
2023-09-27 10:16:00,SystemResetWarning,0832.5,5.00,000.00,028.8,027.5,000.0,037.2,030.5,16.1,0001.9,0021.26,0006.59,0004.98
2023-09-27 10:17:00,SystemResetWarning,0832.5,4.99,000.00,028.9,027.5,000.0,037.2,030.5,16.2,0002.4,0021.15,0006.54,0004.99
2023-09-27 10:18:00,SystemResetWarning,0832.5,5.00,000.00,028.9,027.5,000.0,037.3,030.6,16.6,0002.2,0021.48,0006.55,0005.00
2023-09-27 10:19:00,SystemResetWarning,0832.5,5.01,000.00,028.9,027.5,000.0,037.3,030.6,16.6,0003.0,0021.06,0006.56,0005.01
2023-09-27 10:20:00,SystemResetWarning,0832.5,5.01,000.00,028.9,027.5,000.0,037.3,030.6,16.4,0003.8,0019.87,0006.55,0005.00
2023-09-27 10:21:00,SystemResetWarning,0832.6,5.00,000.00,028.9,027.5,000.0,037.3,030.6,16.2,0004.1,0018.55,0006.48,0004.99
2023-09-27 10:22:00,SystemResetWarning,0832.5,4.99,000.00,028.9,027.5,000.0,037.3,030.6,16.2,0003.8,0017.79,0006.46,0004.99
2023-09-27 10:23:00,SystemResetWarning,0832.5,4.99,000.00,028.9,027.5,000.0,037.3,030.6,15.9,0003.6,0018.08,0006.47,0004.99
2023-09-27 10:24:00,SystemResetWarning,0832.5,4.99,000.00,028.9,027.5,000.0,037.3,030.6,15.5,0000.8,0018.05,0006.53,0004.99
2023-09-27 10:25:00,SystemResetWarning,0832.5,5.00,000.00,028.9,027.5,000.0,037.3,030.6,15.3,0002.0,0017.70,0006.50,0004.99
2023-09-27 10:26:00,SystemResetWarning,0832.5,5.01,000.00,028.9,027.5,000.0,037.3,030.6,15.3,0003.9,0017.51,0006.49,0004.99
2023-09-27 10:27:00,SystemResetWarning,0832.5,5.00,000.00,028.9,027.5,000.0,037.3,030.6,15.3,0001.3,0017.43,0006.49,0004.99
2023-09-27 10:28:00,SystemResetWarning,0832.5,5.00,000.00,028.9,027.5,000.0,037.3,030.6,15.3,0000.5,0018.22,0006.53,0004.98
2023-09-27 10:29:00,SystemResetWarning,0832.5,5.00,000.00,028.9,027.5,000.0,037.3,030.6,15.5,0000.0,0018.23,0006.55,0004.98
2023-09-27 10:30:00,SystemResetWarning,0832.5,5.00,000.00,028.9,027.5,000.0,037.3,030.5,15.7,0000.0,0018.79,0006.55,0004.98
2023-09-27 10:31:00,SystemResetWarning,0832.5,5.00,000.00,028.9,027.4,000.0,037.3,030.5,16.1,0000.0,0019.22,0006.57,0005.00
2023-09-27 10:32:00,SystemResetWarning,0832.5,5.00,000.00,028.9,027.4,000.0,037.3,030.5,16.6,0000.0,0019.36,0006.61,0005.00
2023-09-27 10:33:00,SystemResetWarning,0832.5,5.00,000.00,028.9,027.4,000.0,037.3,030.5,16.9,0000.0,0019.29,0006.66,0005.00
2023-09-27 10:34:00,SystemResetWarning,0832.5,5.01,000.00,028.9,027.4,000.0,037.3,030.5,17.2,0000.8,0018.53,0006.65,0004.99
2023-09-27 10:35:00,SystemResetWarning,0832.5,5.00,000.00,028.9,027.4,000.0,037.3,030.5,17.3,0001.2,0017.18,0006.58,0004.99
2023-09-27 10:36:00,SystemResetWarning,0832.5,5.00,000.00,028.9,027.4,000.0,037.3,030.5,17.6,0001.4,0016.83,0006.65,0005.01
2023-09-27 10:37:00,SystemResetWarning,0832.5,5.00,000.00,028.9,027.4,000.0,037.3,030.5,17.7,0001.0,0016.46,0006.66,0005.02
2023-09-27 10:38:00,SystemResetWarning,0832.5,5.00,000.00,028.9,027.4,000.0,037.3,030.5,17.5,0001.1,0016.87,0006.65,0005.02
2023-09-27 10:39:00,SystemResetWarning,0832.5,5.00,000.00,028.9,027.4,000.0,037.3,030.5,17.7,0001.1,0016.73,0006.64,0005.03
2023-09-27 10:40:00,SystemResetWarning,0832.5,5.00,000.00,028.9,027.4,000.0,037.3,030.5,17.7,0000.9,0016.13,0006.67,0005.04
2023-09-27 10:41:00,SystemResetWarning,0832.5,5.00,000.00,028.9,027.4,000.0,037.3,030.5,17.8,0001.2,0015.53,0006.66,0005.02
2023-09-27 10:42:00,SystemResetWarning,0832.5,4.99,000.00,028.9,027.4,000.0,037.3,030.5,18.0,0001.4,0015.57,0006.69,0005.01
2023-09-27 10:43:00,SystemResetWarning,0832.5,5.00,000.00,028.9,027.4,000.0,037.3,030.5,18.3,0001.8,0015.86,0006.66,0005.01
2023-09-27 10:44:00,SystemResetWarning,0832.5,5.00,000.00,028.9,027.4,000.0,037.3,030.5,18.4,0001.3,0016.30,0006.65,0005.02
2023-09-27 10:45:00,SystemResetWarning,0832.6,5.00,000.00,028.9,027.4,000.0,037.3,030.5,18.6,0001.4,0016.49,0006.66,0005.02
2023-09-27 10:46:00,SystemResetWarning,0832.5,5.00,000.00,028.9,027.4,000.0,037.4,030.5,18.8,0001.5,0017.23,0006.70,0005.02
2023-09-27 10:47:00,SystemResetWarning,0832.5,5.01,000.00,028.9,027.5,000.0,037.4,030.5,18.7,0001.1,0017.33,0006.69,0005.02
2023-09-27 10:48:00,SystemResetWarning,0832.5,5.00,000.00,028.9,027.5,000.0,037.4,030.5,18.5,0001.2,0018.09,0006.72,0005.03
2023-09-27 10:49:00,SystemResetWarning,0832.5,5.00,000.00,028.9,027.5,000.0,037.4,030.6,17.9,0001.6,0018.03,0006.76,0005.04
2023-09-27 10:50:00,SystemResetWarning,0832.5,4.99,000.00,028.9,027.5,000.0,037.4,030.6,17.5,0001.8,0017.37,0006.72,0005.04
2023-09-27 10:51:00,SystemResetWarning,0832.5,4.99,000.00,028.9,027.5,000.0,037.4,030.6,17.4,0002.4,0016.89,0006.67,0005.03
2023-09-27 10:52:00,SystemResetWarning,0832.5,4.99,000.00,028.9,027.5,000.0,037.4,030.5,16.9,0002.4,0017.34,0006.69,0005.04
2023-09-27 10:53:00,SystemResetWarning,0832.5,5.00,000.00,028.9,027.4,000.0,037.4,030.5,16.6,0002.4,0017.76,0006.62,0005.04
2023-09-27 10:54:00,SystemResetWarning,0832.5,5.00,000.00,028.9,027.4,000.0,037.4,030.5,16.6,0002.4,0017.80,0006.71,0005.04
2023-09-27 10:55:00,SystemResetWarning,0832.6,5.00,000.00,028.9,027.4,000.0,037.4,030.5,16.6,0002.8,0018.50,0006.77,0005.05
2023-09-27 10:56:00,SystemResetWarning,0832.5,5.00,000.00,028.9,027.4,000.0,037.4,030.5,16.4,0003.1,0018.62,0006.79,0005.07
2023-09-27 10:57:00,SystemResetWarning,0832.5,5.00,000.00,028.9,027.4,000.0,037.3,030.5,16.1,0003.2,0018.35,0006.76,0005.06
2023-09-27 10:58:00,SystemResetWarning,0832.5,5.00,000.00,028.9,027.4,000.0,037.4,030.5,16.2,0003.6,0018.64,0006.78,0005.07
2023-09-27 10:59:00,SystemResetWarning,0832.5,5.00,000.00,028.9,027.4,000.0,037.4,030.5,16.2,0003.6,0018.12,0006.73,0005.06
